Location: Fisher's Paradise
(46.5411°N, 80.0984°W)
Time: 00:45:55
(UTC-04:00)

Tiangong 2 - Pass Details

Date: 31 March 2019
Orbit: 378 x 389 km, 42.8° (Epoch: 22 April)

Event Time Altitude Azimuth Distance (km) Brightness Sun altitude
Rises 20:55:48 0° 223° (SW) 2,236 5.3 -12.2°
Reaches altitude 10° 20:58:14 10° 204° (SSW) 1,385 3.9 -12.6°
Maximum altitude 21:00:31 19° 157° (SSE) 983 2.7 -12.9°
Enters shadow 21:00:46 19° 150° (SSE) 989 2.7 -13.0°
